FENGYUN 1C DEB

Satellite information

Favourite Embed

Satellite Type and Status

DEBRISIN ORBIT

Key statistics

Satellite FENGYUN 1C DEB at a glance.

Uptime

9498

Days in orbit

Revolutions

≈ 14.2

Per day

Orbit

SSO

Sun Synchronous Orbit

Inclination

99.0

Latest

Satellite identification and parameters

Extended collection of information and parameters for FENGYUN 1C DEB.

Object identification

Identified? True

Debris? True

Object name: FENGYUN 1C DEB

International designator: 1999-025BMU

Object number (NORAD): 31262

Object ID (CCSDS): 31262

Country: PEOPLES REPUBLIC OF CHINA (PRC)

Current information (Y/N): Y

RCS size: SMALL

Orbital parameters

Period: 101.66 minutes

Inclination: 99.0076 deg

SMA: 7215.393 km

Apoapsis: 876.225 km

Periapsis: 798.29 km

RAAN: 209.8025 deg

Eccentricy: 0.0054006

Argument of periapsis: 356.7764 deg

Mean anomaly: 32.5889 deg

Mean motion: 14.16487613 rev/day

Mean motion (dot): 0.00003295 rev/day2

B* drag term: 0.0016543 1/REarth

Two-line elements (TLE)

Creation date: May 9, 2025, 5:15 p.m.

Reference frame: TEME

Reference center: EARTH

Epoch: May 9, 2025, 3:43 a.m. UTC

TLE line 0: 0 FENGYUN 1C DEB

TLE line 1: 1 31262U 99025BMU 25129.15498528 .00003295 00000-0 16543-2 0 9990

TLE line 2: 2 31262 99.0076 209.8025 0054006 356.7764 32.5889 14.16487613926278

Live tracking on map

Real-time ground track for satellite FENGYUN 1C DEB.

In-orbit conjunctions

A list of the most updated potential collisions computed for object FENGYUN 1C DEB.

Target Orbit TCA Probability of collision Miss distance Type
CZ-6A DEB LEO 2024-09-29 06:10:44 0.0002563804 364.0 (m) DEBRIS
SL-16 DEB LEO 2024-07-18 00:49:40 0.0006007 21.0 (m) DEBRIS

Associated space launch

Chinese polar orbiting meteorological satellite

FENGYUN 1C DEB was lifted into orbit during the mission ‘Long March 4B | Feng Yun 1C’, on board a Long March 4B space rocket.

The launch took place on May 10, 1999, 1:33 a.m. from Launch Complex 7.

For more information about the launch, click the button.

Launch to space Long March 4B | Feng Yun 1C
Long March 4B | Feng Yun 1C

Agency: N/A

Status: Launch Successful

Launch date: May 10, 1999, 1:33 a.m. UTC

Rocket: Long March 4B

Launch pad: Launch Complex 7

Location: Taiyuan Satellite Launch Center, People's Republic of China

...

Latest news about this satellite

There are no fresh news available about this satellite. Check back as we update our databases every day.


Newsletter sign-up

Weekly statistics, charts and insights to help you stay on top of the space industry.